X22 KCLT-KJFK

Flight info

Callsign X22
Flight time 1h 14m
Altitude 41000
Route KER4 MERIL RDU HPW SIE CAMRN4
Aircraft F22/M-SDGHITUY/LB1

Departure

Time 2026-05-04 21:44
Airport Charlotte Douglas International Airport (KCLT)

Arrival

Time 2026-05-04 22:58
Airport John F. Kennedy International Airport (KJFK)
Time Latitude Longitude Altitude Speed Heading
2026-05-04 21:28 35.21652 -80.94871 717 ft 0 kts 18°
2026-05-04 21:37 35.21653 -80.94871 715 ft 3 kts 18°
2026-05-04 21:37 35.21686 -80.94901 715 ft 8 kts 313°
2026-05-04 21:38 35.21733 -80.94954 714 ft 10 kts 313°
2026-05-04 21:38 35.21773 -80.95030 715 ft 12 kts 339°
2026-05-04 21:38 35.21872 -80.95042 713 ft 16 kts 356°
2026-05-04 21:38 35.21993 -80.95051 715 ft 19 kts 356°
2026-05-04 21:39 35.22140 -80.95064 713 ft 23 kts 356°
2026-05-04 21:39 35.22296 -80.95077 711 ft 19 kts 356°
2026-05-04 21:39 35.22337 -80.95152 709 ft 7 kts 266°
2026-05-04 21:39 35.22337 -80.95160 709 ft 0 kts 266°
2026-05-04 21:43 35.22290 -80.95273 709 ft 12 kts 206°
2026-05-04 21:43 35.22267 -80.95276 710 ft 0 kts 177°
2026-05-04 21:43 35.21784 -80.95235 715 ft 130 kts 176°
2026-05-04 21:43 35.20592 -80.95138 887 ft 202 kts 177°
2026-05-04 21:44 35.19196 -80.94963 1354 ft 192 kts 176°
2026-05-04 21:44 35.17986 -80.94768 1567 ft 173 kts 173°
2026-05-04 21:44 35.16680 -80.94430 2069 ft 211 kts 165°
2026-05-04 21:44 35.15238 -80.93527 2656 ft 256 kts 143°
2026-05-04 21:45 35.13956 -80.91868 3451 ft 283 kts 133°
2026-05-04 21:45 35.12713 -80.90111 4143 ft 245 kts 134°
2026-05-04 21:45 35.11578 -80.88536 4549 ft 255 kts 133°
2026-05-04 21:45 35.10401 -80.86831 4693 ft 279 kts 132°
2026-05-04 21:46 35.09069 -80.84886 4824 ft 320 kts 132°
2026-05-04 21:46 35.07640 -80.82813 4819 ft 307 kts 132°
2026-05-04 21:46 35.06334 -80.80905 4777 ft 280 kts 132°
2026-05-04 21:46 35.05317 -80.78959 4353 ft 276 kts 105°
2026-05-04 21:47 35.05587 -80.76686 3652 ft 280 kts 55°
2026-05-04 21:47 35.07054 -80.75162 3782 ft 281 kts 34°
2026-05-04 21:47 35.08659 -80.73828 3892 ft 285 kts 34°
2026-05-04 21:47 35.10292 -80.72493 3910 ft 288 kts 33°
2026-05-04 21:48 35.11920 -80.71163 3919 ft 282 kts 33°
2026-05-04 21:48 35.13546 -80.69823 3950 ft 284 kts 34°
2026-05-04 21:48 35.15162 -80.68473 3963 ft 277 kts 35°
2026-05-04 21:48 35.16780 -80.67097 3972 ft 280 kts 35°
2026-05-04 21:49 35.18372 -80.65714 3923 ft 281 kts 37°
2026-05-04 21:49 35.19956 -80.64318 3804 ft 280 kts 37°
2026-05-04 21:49 35.21524 -80.62903 3944 ft 280 kts 37°
2026-05-04 21:49 35.23089 -80.61455 4471 ft 285 kts 38°
2026-05-04 21:50 35.24648 -80.59988 4963 ft 282 kts 38°
2026-05-04 21:50 35.26199 -80.58485 5466 ft 288 kts 38°
2026-05-04 21:50 35.27696 -80.56916 5957 ft 285 kts 49°
2026-05-04 21:50 35.28802 -80.54872 6496 ft 291 kts 58°
2026-05-04 21:51 35.29787 -80.52713 7004 ft 293 kts 60°
2026-05-04 21:51 35.30743 -80.50501 7501 ft 294 kts 61°
2026-05-04 21:51 35.31683 -80.48265 8004 ft 296 kts 61°
2026-05-04 21:51 35.32625 -80.45997 8500 ft 299 kts 61°
2026-05-04 21:52 35.33563 -80.43719 9020 ft 301 kts 61°
2026-05-04 21:52 35.34505 -80.41418 9541 ft 303 kts 62°
2026-05-04 21:52 35.35450 -80.39094 10067 ft 306 kts 61°
2026-05-04 21:52 35.36397 -80.36745 10551 ft 309 kts 61°
2026-05-04 21:53 35.37346 -80.34371 11056 ft 313 kts 61°
2026-05-04 21:53 35.38304 -80.31957 11559 ft 316 kts 61°
2026-05-04 21:53 35.39258 -80.29530 12061 ft 319 kts 61°
2026-05-04 21:53 35.40010 -80.26968 12544 ft 325 kts 84°
2026-05-04 21:54 35.40124 -80.24183 13137 ft 329 kts 85°
2026-05-04 21:54 35.40354 -80.21394 13685 ft 330 kts 79°
2026-05-04 21:54 35.40772 -80.18622 14178 ft 331 kts 76°
2026-05-04 21:54 35.41387 -80.15704 14728 ft 406 kts 69°
2026-05-04 21:55 35.42482 -80.11923 15346 ft 540 kts 68°
2026-05-04 21:55 35.43887 -80.07075 15935 ft 655 kts 70°
2026-05-04 21:55 35.45389 -80.01510 16480 ft 716 kts 70°
2026-05-04 21:55 35.47047 -79.95526 16973 ft 762 kts 70°
2026-05-04 21:56 35.48617 -79.89830 17539 ft 627 kts 70°
2026-05-04 21:56 35.50012 -79.84763 18343 ft 629 kts 69°
2026-05-04 21:56 35.51402 -79.79746 19037 ft 632 kts 69°
2026-05-04 21:56 35.52805 -79.74628 19758 ft 632 kts 70°
2026-05-04 21:57 35.54203 -79.69520 20499 ft 631 kts 70°
2026-05-04 21:57 35.55598 -79.64418 21246 ft 630 kts 70°
2026-05-04 21:57 35.56996 -79.59303 22016 ft 629 kts 70°
2026-05-04 21:57 35.58384 -79.54205 22754 ft 628 kts 70°
2026-05-04 21:58 35.59766 -79.49124 23495 ft 627 kts 70°
2026-05-04 21:58 35.61417 -79.44189 24123 ft 622 kts 56°
2026-05-04 21:58 35.64263 -79.40289 24796 ft 611 kts 33°
2026-05-04 21:58 35.68009 -79.38012 25515 ft 597 kts 11°
2026-05-04 21:59 35.72073 -79.37622 26106 ft 580 kts 358°
2026-05-04 21:59 35.75222 -79.35778 24624 ft 556 kts 46°
2026-05-04 21:59 35.77907 -79.31946 25478 ft 612 kts 47°
2026-05-04 21:59 35.80604 -79.27851 26258 ft 617 kts 49°
2026-05-04 22:00 35.83210 -79.23646 27041 ft 618 kts 51°
2026-05-04 22:00 35.85705 -79.19322 27266 ft 620 kts 52°
2026-05-04 22:00 35.88480 -79.15310 27703 ft 613 kts 41°
2026-05-04 22:00 35.91561 -79.11685 28416 ft 611 kts 39°
2026-05-04 22:01 35.94693 -79.08146 29163 ft 610 kts 38°
2026-05-04 22:01 35.97840 -79.04637 29936 ft 609 kts 38°
2026-05-04 22:01 36.00913 -79.01044 30638 ft 609 kts 42°
2026-05-04 22:01 36.03819 -78.97218 31324 ft 612 kts 43°
2026-05-04 22:02 36.06755 -78.93421 32026 ft 611 kts 42°
2026-05-04 22:02 36.09725 -78.89646 32738 ft 611 kts 42°
2026-05-04 22:02 36.12677 -78.85855 33468 ft 611 kts 42°
2026-05-04 22:02 36.15614 -78.82073 34189 ft 611 kts 42°
2026-05-04 22:03 36.18555 -78.78288 34849 ft 609 kts 42°
2026-05-04 22:03 36.21488 -78.74513 35518 ft 608 kts 42°
2026-05-04 22:03 36.24416 -78.70752 36246 ft 605 kts 41°
2026-05-04 22:03 36.27329 -78.67012 36943 ft 603 kts 42°
2026-05-04 22:04 36.30231 -78.63250 37686 ft 604 kts 42°
2026-05-04 22:04 36.33137 -78.59476 38459 ft 605 kts 42°
2026-05-04 22:04 36.36045 -78.55707 39184 ft 605 kts 42°
2026-05-04 22:04 36.38955 -78.51932 39876 ft 606 kts 42°
2026-05-04 22:05 36.41869 -78.48145 40467 ft 607 kts 43°
2026-05-04 22:05 36.44780 -78.44356 40756 ft 606 kts 43°
2026-05-04 22:05 36.47654 -78.40563 40874 ft 608 kts 47°
2026-05-04 22:05 36.49792 -78.36060 40970 ft 620 kts 70°
2026-05-04 22:06 36.50464 -78.30783 41070 ft 623 kts 94°
2026-05-04 22:06 36.49148 -78.20164 41058 ft 622 kts 102°
2026-05-04 22:07 36.47366 -78.09748 41800 ft 621 kts 103°
2026-05-04 22:07 36.46546 -78.04410 42464 ft 623 kts 93°
2026-05-04 22:07 36.46940 -77.99176 42831 ft 622 kts 70°
2026-05-04 22:07 36.48836 -77.94416 43017 ft 613 kts 47°
2026-05-04 22:08 36.51939 -77.90931 43116 ft 597 kts 24°
2026-05-04 22:08 36.55727 -77.89025 43159 ft 584 kts 11°
2026-05-04 22:08 36.59632 -77.87695 43125 ft 581 kts
2026-05-04 22:09 36.67269 -77.84288 43111 ft 603 kts 29°
2026-05-04 22:09 36.70662 -77.81040 43075 ft 629 kts 40°
2026-05-04 22:09 36.73775 -77.77076 43073 ft 652 kts 44°
2026-05-04 22:09 36.76918 -77.72878 43032 ft 666 kts 41°
2026-05-04 22:10 36.80280 -77.68905 43007 ft 667 kts 39°
2026-05-04 22:10 36.86966 -77.60882 42989 ft 668 kts 41°
2026-05-04 22:11 36.93649 -77.52834 42964 ft 669 kts 40°
2026-05-04 22:11 37.00355 -77.44715 42963 ft 670 kts 41°
2026-05-04 22:12 37.07018 -77.36632 42977 ft 665 kts 41°
2026-05-04 22:12 37.13670 -77.28539 42966 ft 668 kts 41°
2026-05-04 22:13 37.20276 -77.20477 42962 ft 666 kts 41°
2026-05-04 22:13 37.26922 -77.12345 42975 ft 662 kts 41°
2026-05-04 22:14 37.33526 -77.04244 42958 ft 666 kts 41°
2026-05-04 22:14 37.40157 -76.96086 42950 ft 667 kts 41°
2026-05-04 22:15 37.46783 -76.87912 42965 ft 663 kts 41°
2026-05-04 22:15 37.50175 -76.84039 42933 ft 657 kts 30°
2026-05-04 22:15 37.54257 -76.81636 43036 ft 643 kts 10°
2026-05-04 22:16 37.62506 -76.77389 43068 ft 664 kts 38°
2026-05-04 22:16 37.65490 -76.72907 43105 ft 675 kts 59°
2026-05-04 22:16 37.67117 -76.67350 43124 ft 681 kts 81°
2026-05-04 22:16 37.67178 -76.61400 43143 ft 681 kts 102°
2026-05-04 22:17 37.65667 -76.55794 43138 ft 674 kts 123°
2026-05-04 22:17 37.62784 -76.51226 43131 ft 662 kts 144°
2026-05-04 22:17 37.58999 -76.48107 43121 ft 647 kts 155°
2026-05-04 22:17 37.55303 -76.44820 43071 ft 661 kts 136°
2026-05-04 22:18 37.52670 -76.40060 43102 ft 675 kts 115°
2026-05-04 22:18 37.51517 -76.34332 43398 ft 681 kts 91°
2026-05-04 22:18 37.52080 -76.28499 44417 ft 673 kts 71°
2026-05-04 22:18 37.54115 -76.23213 44848 ft 671 kts 50°
2026-05-04 22:19 37.57409 -76.19138 45031 ft 662 kts 28°
2026-05-04 22:19 37.61538 -76.16793 45115 ft 646 kts
2026-05-04 22:19 37.65938 -76.15797 45100 ft 641 kts
2026-05-04 22:20 37.74772 -76.14397 44995 ft 640 kts
2026-05-04 22:20 37.83581 -76.12936 45002 ft 639 kts
2026-05-04 22:21 37.92334 -76.11209 44958 ft 640 kts
2026-05-04 22:21 37.96693 -76.09935 44945 ft 651 kts 19°
2026-05-04 22:21 38.00609 -76.06977 45051 ft 665 kts 38°
2026-05-04 22:22 38.07434 -75.99061 45027 ft 666 kts 38°
2026-05-04 22:22 38.14333 -75.91214 44976 ft 666 kts 39°
2026-05-04 22:23 38.21209 -75.83315 44960 ft 666 kts 39°
2026-05-04 22:23 38.28090 -75.75398 44965 ft 667 kts 39°
2026-05-04 22:24 38.34968 -75.67464 44958 ft 667 kts 39°
2026-05-04 22:24 38.41828 -75.59528 44954 ft 668 kts 39°
2026-05-04 22:25 38.48697 -75.51563 44338 ft 666 kts 39°
2026-05-04 22:25 38.52120 -75.47585 43478 ft 665 kts 39°
2026-05-04 22:25 38.55531 -75.43615 42665 ft 663 kts 39°
2026-05-04 22:25 38.57786 -75.40988 42135 ft 663 kts 39°
2026-05-04 22:26 38.61194 -75.37013 41371 ft 662 kts 39°
2026-05-04 22:26 38.64590 -75.33047 40644 ft 661 kts 39°
2026-05-04 22:26 38.69078 -75.27799 39704 ft 659 kts 39°
2026-05-04 22:26 38.72455 -75.23842 39023 ft 658 kts 39°
2026-05-04 22:27 38.74736 -75.21168 38559 ft 657 kts 39°
2026-05-04 22:27 38.78102 -75.17216 37730 ft 655 kts 39°
2026-05-04 22:27 38.81445 -75.13286 36929 ft 652 kts 39°
2026-05-04 22:27 38.84784 -75.09355 36180 ft 648 kts 39°
2026-05-04 22:28 38.88091 -75.05459 35404 ft 646 kts 40°
2026-05-04 22:28 38.91400 -75.01552 34673 ft 646 kts 40°
2026-05-04 22:28 38.94705 -74.97646 33936 ft 646 kts 40°
2026-05-04 22:28 38.98015 -74.93730 33117 ft 647 kts 40°
2026-05-04 22:29 39.01324 -74.89808 32317 ft 648 kts 40°
2026-05-04 22:29 39.04643 -74.85869 31551 ft 647 kts 40°
2026-05-04 22:29 39.07952 -74.81935 30794 ft 649 kts 40°
2026-05-04 22:29 39.11303 -74.78042 30058 ft 649 kts 37°
2026-05-04 22:30 39.14795 -74.74391 29217 ft 650 kts 37°
2026-05-04 22:30 39.18059 -74.70864 28374 ft 575 kts 37°
2026-05-04 22:30 39.20977 -74.67676 27530 ft 528 kts 37°
2026-05-04 22:30 39.23737 -74.64706 26741 ft 512 kts 36°
2026-05-04 22:31 39.26464 -74.61768 25975 ft 508 kts 36°
2026-05-04 22:31 39.29156 -74.58846 25224 ft 504 kts 36°
2026-05-04 22:31 39.31825 -74.55943 24499 ft 499 kts 36°
2026-05-04 22:31 39.34469 -74.53070 23791 ft 495 kts 36°
2026-05-04 22:32 39.37090 -74.50222 23004 ft 490 kts 36°
2026-05-04 22:32 39.39649 -74.47437 22207 ft 485 kts 36°
2026-05-04 22:32 39.42222 -74.44630 21417 ft 481 kts 36°
2026-05-04 22:32 39.44770 -74.41850 20662 ft 478 kts 36°
2026-05-04 22:33 39.47299 -74.39088 19911 ft 474 kts 36°
2026-05-04 22:33 39.49807 -74.36347 19374 ft 471 kts 36°
2026-05-04 22:33 39.52305 -74.33614 19142 ft 470 kts 36°
2026-05-04 22:33 39.54800 -74.30880 18933 ft 469 kts 36°
2026-05-04 22:34 39.57281 -74.28158 18452 ft 466 kts 36°
2026-05-04 22:34 39.59750 -74.25450 17939 ft 464 kts 37°
2026-05-04 22:34 39.62202 -74.22756 17402 ft 461 kts 37°
2026-05-04 22:34 39.64634 -74.20082 16886 ft 458 kts 37°
2026-05-04 22:35 39.67058 -74.17415 16365 ft 455 kts 37°
2026-05-04 22:35 39.69465 -74.14763 15857 ft 453 kts 37°
2026-05-04 22:35 39.71855 -74.12127 15358 ft 450 kts 37°
2026-05-04 22:35 39.74235 -74.09500 14866 ft 447 kts 37°
2026-05-04 22:36 39.76600 -74.06888 14390 ft 443 kts 37°
2026-05-04 22:36 39.78873 -74.04367 13926 ft 417 kts 37°
2026-05-04 22:36 39.81026 -74.01986 13403 ft 396 kts 35°
2026-05-04 22:36 39.83134 -73.99826 12866 ft 376 kts 32°
2026-05-04 22:37 39.85207 -73.97870 12342 ft 360 kts 30°
2026-05-04 22:37 39.87297 -73.96211 11814 ft 344 kts 24°
2026-05-04 22:37 39.89376 -73.94809 11334 ft 330 kts 22°
2026-05-04 22:37 39.91344 -73.93472 11095 ft 310 kts 24°
2026-05-04 22:38 39.93195 -73.92161 10997 ft 302 kts 24°
2026-05-04 22:38 39.95039 -73.90845 10969 ft 303 kts 24°
2026-05-04 22:38 39.96887 -73.89531 10954 ft 302 kts 24°
2026-05-04 22:38 39.98725 -73.88206 10947 ft 304 kts 29°
2026-05-04 22:39 40.00036 -73.86082 10952 ft 319 kts 72°
2026-05-04 22:39 40.00222 -73.83151 11032 ft 322 kts 90°
2026-05-04 22:39 40.00152 -73.80229 11013 ft 323 kts 92°
2026-05-04 22:39 40.00028 -73.77307 10988 ft 323 kts 92°
2026-05-04 22:40 39.99920 -73.74390 10958 ft 323 kts 84°
2026-05-04 22:40 40.00715 -73.71818 10949 ft 311 kts 39°
2026-05-04 22:40 40.02579 -73.70650 10993 ft 291 kts 356°
2026-05-04 22:40 40.04356 -73.71406 10620 ft 270 kts 311°
2026-05-04 22:41 40.05447 -73.73395 10285 ft 266 kts 301°
2026-05-04 22:41 40.06415 -73.75407 9845 ft 266 kts 302°
2026-05-04 22:41 40.07796 -73.76915 9281 ft 273 kts 343°
2026-05-04 22:41 40.09730 -73.76693 8886 ft 287 kts 12°
2026-05-04 22:42 40.11622 -73.75858 8415 ft 288 kts 15°
2026-05-04 22:42 40.13488 -73.74917 7926 ft 286 kts 17°
2026-05-04 22:42 40.15337 -73.73954 7426 ft 287 kts 17°
2026-05-04 22:42 40.17184 -73.72974 6935 ft 285 kts 18°
2026-05-04 22:43 40.19026 -73.71997 6445 ft 287 kts 18°
2026-05-04 22:43 40.20880 -73.71034 5938 ft 285 kts 18°
2026-05-04 22:43 40.22725 -73.70087 5427 ft 285 kts 17°
2026-05-04 22:43 40.24560 -73.69152 4920 ft 281 kts 17°
2026-05-04 22:44 40.26388 -73.68226 4414 ft 283 kts 17°
2026-05-04 22:44 40.28210 -73.67302 4129 ft 278 kts 18°
2026-05-04 22:44 40.30027 -73.66383 4016 ft 283 kts 17°
2026-05-04 22:44 40.31852 -73.65465 3968 ft 279 kts 18°
2026-05-04 22:45 40.33671 -73.64560 3943 ft 285 kts 17°
2026-05-04 22:45 40.37280 -73.62640 3925 ft 283 kts 22°
2026-05-04 22:45 40.39014 -73.61429 3934 ft 279 kts 26°
2026-05-04 22:46 40.40731 -73.60163 3937 ft 287 kts 26°
2026-05-04 22:46 40.42446 -73.58864 3932 ft 286 kts 26°
2026-05-04 22:46 40.44151 -73.57563 3922 ft 282 kts 26°
2026-05-04 22:46 40.45887 -73.56342 3916 ft 279 kts 19°
2026-05-04 22:47 40.47701 -73.55410 3918 ft 281 kts 15°
2026-05-04 22:47 40.49541 -73.54548 3920 ft 280 kts 16°
2026-05-04 22:47 40.51350 -73.53738 3907 ft 281 kts 14°
2026-05-04 22:47 40.53203 -73.52923 3917 ft 281 kts 14°
2026-05-04 22:48 40.55040 -73.52129 3914 ft 278 kts 14°
2026-05-04 22:48 40.56892 -73.51327 3912 ft 281 kts 14°
2026-05-04 22:48 40.58734 -73.50535 3912 ft 277 kts 14°
2026-05-04 22:48 40.60582 -73.49740 3924 ft 281 kts 15°
2026-05-04 22:49 40.62420 -73.48942 3930 ft 279 kts 14°
2026-05-04 22:49 40.64270 -73.48133 3927 ft 280 kts 15°
2026-05-04 22:49 40.66111 -73.47327 3926 ft 279 kts 15°
2026-05-04 22:49 40.67959 -73.46508 3921 ft 282 kts 15°
2026-05-04 22:50 40.69798 -73.45701 3916 ft 278 kts 14°
2026-05-04 22:50 40.71639 -73.44886 3911 ft 280 kts 15°
2026-05-04 22:50 40.73474 -73.44077 3929 ft 279 kts 15°
2026-05-04 22:50 40.75334 -73.43389 3887 ft 273 kts 357°
2026-05-04 22:51 40.77098 -73.44006 3930 ft 260 kts 323°
2026-05-04 22:51 40.78499 -73.45480 3960 ft 256 kts 310°
2026-05-04 22:51 40.79672 -73.47229 3958 ft 254 kts 302°
2026-05-04 22:51 40.80619 -73.49193 3934 ft 250 kts 296°
2026-05-04 22:52 40.81409 -73.51103 3886 ft 223 kts 291°
2026-05-04 22:52 40.81878 -73.52920 3617 ft 204 kts 273°
2026-05-04 22:52 40.81838 -73.54748 3130 ft 191 kts 261°
2026-05-04 22:52 40.81610 -73.56400 2974 ft 181 kts 255°
2026-05-04 22:53 40.81252 -73.57992 2926 ft 181 kts 250°
2026-05-04 22:53 40.80819 -73.59555 2894 ft 181 kts 248°
2026-05-04 22:53 40.80372 -73.61103 2873 ft 175 kts 249°
2026-05-04 22:53 40.79874 -73.62616 2881 ft 174 kts 234°
2026-05-04 22:54 40.79048 -73.63838 2823 ft 180 kts 224°
2026-05-04 22:54 40.78082 -73.64885 2341 ft 180 kts 217°
2026-05-04 22:54 40.77038 -73.65774 2062 ft 180 kts 212°
2026-05-04 22:54 40.75938 -73.66602 1926 ft 186 kts 211°
2026-05-04 22:55 40.74821 -73.67418 1861 ft 182 kts 211°
2026-05-04 22:55 40.73733 -73.68254 1818 ft 182 kts 212°
2026-05-04 22:55 40.72674 -73.69132 1732 ft 179 kts 213°
2026-05-04 22:55 40.71604 -73.69974 1705 ft 180 kts 212°
2026-05-04 22:56 40.70545 -73.70779 1694 ft 181 kts 211°
2026-05-04 22:56 40.69442 -73.71584 1526 ft 185 kts 210°
2026-05-04 22:56 40.68293 -73.72415 1123 ft 190 kts 213°
2026-05-04 22:56 40.67245 -73.73346 902 ft 167 kts 212°
2026-05-04 22:57 40.66280 -73.74168 666 ft 168 kts 208°
2026-05-04 22:57 40.65343 -73.74878 376 ft 145 kts 206°
2026-05-04 22:57 40.64479 -73.75529 97 ft 138 kts 206°
2026-05-04 22:57 40.63798 -73.76066 18 ft 88 kts 210°
2026-05-04 22:58 40.63467 -73.76318 21 ft 54 kts 213°
2026-05-04 22:58 40.63259 -73.76589 17 ft 41 kts 240°
2026-05-04 22:58 40.63282 -73.76814 17 ft 0 kts 301°
2026-05-04 22:58 40.63294 -73.76842 17 ft 16 kts 301°
2026-05-04 22:59 40.63350 -73.76964 17 ft 21 kts 302°
2026-05-04 22:59 40.63446 -73.77175 17 ft 30 kts 301°
2026-05-04 22:59 40.63488 -73.77268 17 ft 0 kts 301°
2026-05-04 22:59 40.63515 -73.77328 17 ft 15 kts 301°
2026-05-04 23:00 40.63536 -73.77373 18 ft 0 kts 301°
2026-05-04 23:01 40.63589 -73.77492 18 ft 20 kts 300°
2026-05-04 23:01 40.63643 -73.77601 17 ft 0 kts 307°